Home > Weather > Rustenburg > Past weeks

Flag for South Africa Weather for the Past 2 Weeks in Rustenburg, South Africa

Now
45 °F

Sunny.


Feels Like: 45 °F
Forecast: 43 / 77 °F
Wind: No wind

Location: Lanseria Civ / Mil

Current Time: May 5, 2016 at 7:39:10 AM

Latest Report: May 5, 2016 at 7:00 AM


Visibility: 10 mi

Pressure: 30.39 "Hg (26.36 "Hg at 1166m altitude)

Humidity: 93%

Dew Point: 43 °F

Location of RustenburgLocation

Historic Weather in Rustenburg — Graph

°F

Rustenburg Temperature Yesterday

Maximum temperature yesterday: 73 °F (at 3:00 PM)
Minimum temperature yesterday: 48 °F (at 6:00 AM)
Average temperature yesterday: 62 °F

High & Low Weather Summary for the Past Weeks

 TemperatureHumidityPressure
High84 °F (Apr 20, 4:00 PM)100% (Apr 21, 8:00 PM)30.39 "Hg (Apr 21, 8:00 PM)
Low45 °F (Apr 22, 5:01 AM)22% (Apr 30, 2:00 PM)29.98 "Hg (Apr 29, 3:00 PM)
Average65 °F62%30.21 "Hg
* Reported Apr 20 6:00 AM — May 5 6:00 AM, Rustenburg, Weather by CustomWeather, © 2016

Note: Actual official high and low records may vary slightly from our data, if they occured in-between our weather recording intervals... More about our weather records

Advertising

Rustenburg Weather History for the Previous 24 Hours

Scroll right to see more
 ConditionsComfort  
Time TempWeatherWind HumidityBarometerVisibility
6:00 AM
Thu, May 5
46 °FSunny.No wind87%30.36 "Hg10 mi
5:00 AM46 °FClear.No wind87%30.36 "Hg10 mi
10:00 PM
Wed, May 4
55 °FPassing clouds.3 mph59%30.36 "HgN/A
9:00 PM61 °FPassing clouds.5 mph45%30.36 "HgN/A
8:00 PM63 °FClear.6 mph42%30.36 "Hg10 mi
7:00 PM64 °FClear.3 mph40%30.33 "Hg10 mi
6:00 PM68 °FPassing clouds.3 mph30%30.30 "HgN/A
5:00 PM72 °FPassing clouds.5 mph25%30.30 "HgN/A
4:00 PM73 °FPassing clouds.5 mph25%30.30 "HgN/A
3:00 PM73 °FPassing clouds.6 mph23%30.30 "HgN/A
2:00 PM72 °FPassing clouds.7 mph29%30.30 "HgN/A
1:00 PM70 °FSunny.5 mph38%30.33 "Hg10 mi
12:00 PM64 °FPassing clouds.7 mph46%30.36 "HgN/A
11:00 AM61 °FSunny.9 mph55%30.36 "Hg10 mi
9:00 AM55 °FPassing clouds.7 mph67%30.36 "HgN/A
8:00 AM50 °FPassing clouds.3 mph58%30.27 "HgN/A
Weather by CustomWeather, © 2016

See weather overviewHow to use our weather pages